sat.trackr.live / text

‹ back to catalog

STARLINK-32788

NORAD 62502 · 2025-003R

PAYLOAD ACTIVE UNKNOWN

§ Identity

Operator
Country
US
Launch date
2025-01-06
Launch site
AFETR
Launch vehicle
Mass (kg)
RCS (m²)

Purposes: comms

External: N2YO · Heavens-Above · Gunter

§ Orbital elements

Epoch: 2026-09-21T11:07:42.167136Z

Period
94.27 min
Inclination
43.0023°
Eccentricity
0.0001639
Mean motion
15.27588749 rev/d
Perigee alt
481.9 km
Apogee alt
484.1 km
Semi-major
6,861.2 km
B*
3.8374e-4
RAAN
263.2596°
Arg perigee
281.0417°
Mean anomaly
79.0250°
Rev number
9,649

§ Raw data

STARLINK-327881 62502U 25003R   26264.46368249  .00010315  00000+0  38374-3 0  99942 62502  43.0023 263.2596 0001639 281.0417  79.0250 15.27588749 96491

JSON: /api/v1/satellites/62502 · /tle

For live sub-satellite position, see the globe view (requires WebGL).

§ Visibility from observer

Set your observer location to see the next 7 days of passes ≥ 10°. The values pass through the URL so the page stays shareable.

No JS? Fill the form by hand. The geolocation button needs JavaScript.